Sant Cugat del Valles, Spain
Current Conditions -  °F | °C
As of 5:30 AM on Monday 26 Jan 2015 (Local Time) from LEBL Reporting Station
Clear Clear  
Wind Chill: 35°   Ceiling: Unl
Heat Index: 43°   Visibility: 6mi
Dew Point: 25°   Wind: 17mph
Humidity: 49%   Direction: 330°NNW
Pressure: 30.24"   Gusts: NA
Location:  41.47°N, 2.08°E
Report Text: LEBL 260430Z 33015KT CAVOK 06/M04 Q1024 NOSIG
Loading
Personal Weather Stations






























Interactive Weather Map New forecast layout! Learn more

10-Day Weather Forecast

Advertisements
Track Severe Weather on mobile